Location: Axtheid
(49.6213°N, 11.8205°E)
Time: 13:23:49
(UTC+00:00)

SJ 16-02 - Pass Details

Date: 24 January 2021
Orbit: 607 x 615 km, 75.0° (Epoch: 26 February)

Event Time Altitude Azimuth Distance (km) Brightness Sun altitude
Rises 18:10:29 0° 228° (SW) 2,867 5.6 -21.7°
Reaches altitude 10° 18:12:55 10° 238° (WSW) 1,966 4.8 -22.1°
Maximum altitude 18:16:51 31° 302° (WNW) 1,072 3.0 -22.7°
Enters shadow 18:20:31 11° 3° (N) 1,879 3.8 -23.3°
